Temperature
8 10 10 10 9 10 10 10 10 9 7 6 7 7 6 5 4 3 3 2 1 1 1 2 3 3 3 3 3 3 3 3 3 3 3 3 3 3 3 3 3 3 3 4
9 9 8 7 7 8 9 9 9 8 6 6 6 6 6 5 3 3 2 1 1 0 1 1 2 2 2 2 2 2 2 2 3 3 3 3 3 3 3 3 3 3 3 3
10 8 6 6 7 7 8 8 9 8 6 5 5 7 6 5 3 2 1 0 -0 -0 -0 -0 0 1 1 1 1 1 2 2 2 2 2 2 2 2 2 2 2 2 2 2
7 6 5 6 6 7 8 7 6 6 7 8 6 8 7 5 3 2 1 0 -0 -1 -1 -1 -0 -0 0 0 1 1 1 1 1 1 1 1 1 1 1 2 2 1 2 2
6 5 5 6 6 6 6 4 5 5 6 6 5 6 8 4 4 3 2 0 -1 -1 -1 -1 -1 -0 -0 -0 -0 -0 0 0 0 0 0 0 0 0 1 1 1 1 1 1
5 3 4 4 4 4 3 4 4 4 5 6 5 6 8 6 4 4 2 -0 -1 -1 -1 -1 -1 -1 -1 -1 -1 -1 -1 -1 -1 -1 -1 -1 -1 -1 -0 -0 -0 -0 -0 -0
5 4 3 3 4 3 4 6 7 7 6 7 3 4 6 4 2 2 1 -0 -1 -2 -2 -2 -1 -1 -1 -1 -1 -1 -1 -1 -1 -1 -1 -1 -1 -1 -1 -1 -1 -1 -1 -1
6 6 3 2 4 4 4 5 7 8 8 8 3 4 5 1 -0 -1 -1 -2 -2 -2 -2 -2 -2 -2 -2 -2 -2 -2 -2 -2 -2 -2 -2 -2 -2 -2 -2 -2 -2 -2 -2 -2
6 5 2 1 2 3 4 4 4 5 4 4 6 4 3 1 -0 -1 -2 -2 -2 -2 -2 -3 -2 -2 -2 -2 -2 -2 -2 -2 -2 -2 -2 -3 -3 -3 -3 -3 -3 -2 -2 -2
4 4 2 1 1 1 2 3 3 4 5 6 6 5 6 2 1 0 -1 -2 -2 -3 -3 -3 -3 -3 -3 -3 -3 -3 -3 -3 -3 -3 -3 -3 -3 -3 -3 -3 -3 -3 -3 -3
2 3 2 1 1 2 1 2 3 4 4 5 5 6 4 2 1 0 -1 -2 -2 -3 -3 -3 -3 -3 -3 -4 -4 -4 -4 -4 -4 -4 -4 -4 -4 -4 -4 -4 -4 -4 -4 -4
1 2 2 2 0 -0 1 2 2 3 3 2 4 5 1 0 -0 -1 -2 -3 -3 -3 -4 -4 -4 -4 -4 -4 -4 -4 -4 -4 -4 -4 -4 -4 -5 -5 -5 -5 -5 -5 -5 -4
-0 1 2 2 0 -1 -1 -1 -1 0 1 2 3 4 -0 -1 -1 -2 -2 -3 -4 -4 -4 -4 -4 -4 -5 -5 -5 -5 -5 -5 -5 -5 -5 -5 -5 -6 -6 -6 -6 -6 -5 -5
-0 0 2 4 3 1 -1 -2 -2 -1 1 2 2 3 1 -1 -1 -2 -3 -4 -4 -4 -5 -5 -5 -5 -5 -5 -5 -6 -6 -5 -5 -5 -6 -6 -6 -6 -6 -6 -6 -6 -6 -6
-1 -0 -1 -1 -1 -1 -1 -1 -2 -2 0 1 2 1 1 0 -1 -2 -3 -4 -5 -5 -5 -5 -6 -6 -6 -6 -6 -6 -6 -6 -6 -6 -6 -6 -7 -7 -7 -7 -7 -7 -7 -7
-2 -2 -2 -2 -2 -2 -2 -2 -2 -2 -1 -1 -1 -0 -1 -2 -3 -3 -4 -5 -5 -5 -6 -6 -6 -6 -6 -6 -6 -6 -7 -7 -7 -7 -7 -7 -7 -7 -7 -7 -7 -7 -7 -7
-3 -3 -2 -0 -3 -3 -1 -2 -2 -2 -2 -2 -1 -1 -2 -3 -4 -4 -5 -5 -6 -6 -6 -6 -6 -6 -7 -7 -7 -7 -7 -7 -8 -8 -8 -8 -8 -8 -8 -8 -8 -8 -8 -8
-4 -3 -2 -1 -2 -1 0 -3 -3 -3 -3 -3 -3 -3 -4 -4 -5 -5 -5 -6 -6 -6 -6 -7 -7 -7 -7 -7 -7 -8 -8 -8 -8 -8 -8 -8 -8 -8 -8 -8 -8 -8 -8 -8
-4 -3 -2 -2 -1 -0 -1 -3 -4 -4 -3 -4 -4 -4 -5 -7 -6 -5 -5 -6 -6 -6 -7 -7 -7 -7 -7 -8 -8 -8 -8 -9 -9 -9 -9 -9 -9 -9 -9 -9 -9 -9 -9 -9
-6 -5 -3 -3 -1 -1 -0 -4 -5 -4 -3 -4 -5 -5 -7 -7 -4 -3 -6 -6 -7 -7 -7 -8 -8 -8 -8 -8 -9 -9 -9 -9 -9 -9 -9 -9 -9 -9 -9 -9 -9 -9 -9 -9
-5 -5 -4 -3 -2 -1 -3 -6 -5 -3 -2 -5 -6 -7 -8 -7 -5 -6 -7 -7 -8 -8 -8 -8 -8 -9 -9 -9 -9 -9 -9 -9 -9 -10 -10 -10 -10 -10 -10 -10 -10 -10 -10 -10
-4 -4 -4 -4 -3 -2 -6 -6 -4 -4 -6 -6 -7 -7 -8 -8 -8 -8 -8 -8 -8 -9 -9 -9 -9 -9 -9 -9 -9 -9 -10 -10 -10 -10 -10 -10 -10 -10 -10 -10 -10 -10 -10 -10
-5 -4 -4 -4 -3 -5 -7 -6 -6 -7 -7 -7 -7 -7 -8 -8 -8 -9 -9 -9 -9 -9 -9 -9 -10 -9 -10 -10 -10 -10 -10 -10 -10 -10 -10 -10 -10 -11 -11 -11 -11 -11 -11 -11
-6 -8 -6 -6 -5 -7 -8 -7 -7 -7 -8 -8 -8 -8 -8 -9 -9 -9 -9 -10 -10 -10 -10 -10 -10 -10 -10 -10 -10 -10 -10 -11 -11 -11 -11 -11 -11 -11 -11 -11 -11 -11 -11 -11
-6 -8 -7 -7 -7 -8 -8 -8 -8 -8 -8 -9 -9 -9 -9 -9 -10 -10 -10 -10 -10 -10 -10 -10 -11 -10 -10 -11 -11 -11 -11 -11 -11 -11 -11 -11 -11 -11 -11 -12 -12 -12 -12 -12
-9 -9 -7 -6 -7 -8 -7 -8 -8 -9 -9 -9 -9 -10 -10 -10 -10 -10 -11 -11 -11 -11 -11 -11 -11 -11 -11 -11 -11 -11 -11 -12 -12 -12 -12 -12 -12 -12 -12 -12 -12 -12 -12 -12
Wind_Speed
1 3 5 6 7 4 4 6 7 5 2 4 8 9 7 4 4 4 3 2 1 1 1 1 1 1 1 2 2 3 3 2 2 2 1 1 0 1 1 2 2 2 2 2
3 5 4 2 3 3 5 6 7 4 2 3 6 9 8 6 5 4 4 3 2 1 1 2 1 1 1 2 1 2 2 2 2 2 1 0 1 0 1 1 1 1 1 2
6 1 1 3 4 4 6 9 8 6 2 4 4 7 7 4 4 3 3 3 2 1 1 1 1 0 1 1 1 1 1 2 2 2 1 1 1 1 0 1 1 1 1 0
3 1 2 3 4 5 7 5 6 5 5 4 4 6 6 5 5 4 4 3 2 2 1 0 1 1 1 1 1 1 1 1 1 1 2 3 2 2 1 1 1 1 1 1
2 0 2 4 4 4 2 1 3 4 5 5 5 6 6 4 6 6 5 4 3 2 1 1 1 2 1 1 1 1 1 1 1 1 1 2 2 2 1 1 1 1 1 1
2 0 1 1 1 2 4 3 2 2 3 6 7 8 7 6 6 5 4 4 3 3 2 2 1 2 1 1 1 1 1 1 1 1 1 2 2 2 2 2 2 2 1 2
2 2 0 1 2 3 3 3 3 4 5 6 3 6 7 2 2 4 4 3 3 3 3 2 2 2 2 2 1 1 1 1 1 1 1 2 2 2 3 3 3 2 2 2
4 4 3 2 3 4 5 5 5 6 6 4 3 8 4 0 1 2 3 3 3 3 3 3 3 3 3 2 2 2 2 2 2 2 2 2 2 2 2 3 3 3 3 3
5 3 2 0 0 2 4 5 3 2 3 6 6 5 5 3 3 3 4 4 4 3 3 4 3 3 3 3 3 3 3 3 3 3 3 3 3 3 3 3 3 3 3 3
2 3 1 0 1 1 2 3 4 5 5 8 8 8 5 5 6 5 5 6 5 4 4 4 3 3 4 4 4 4 4 4 4 4 3 3 4 4 4 4 4 4 4 4
1 3 2 2 5 6 4 4 4 4 4 5 7 6 2 5 6 7 7 5 5 5 4 4 4 3 3 3 3 4 4 4 4 4 4 4 4 4 4 4 4 4 4 4
2 2 4 4 0 3 4 6 7 6 6 5 6 6 1 1 3 5 5 5 5 4 4 4 4 3 3 3 3 3 4 4 4 4 4 4 4 4 5 5 5 5 5 5
3 3 2 3 2 2 3 3 4 3 3 7 8 7 1 1 3 4 5 4 4 4 4 3 3 3 3 3 3 4 4 4 4 4 4 4 5 5 5 5 5 5 5 5
2 3 6 8 4 2 4 5 6 7 7 9 13 13 7 6 7 6 5 5 4 4 3 3 3 3 3 3 3 4 4 4 4 4 4 5 5 5 5 5 5 5 5 5
2 4 5 8 7 4 6 7 9 11 12 12 13 14 13 10 9 7 5 4 4 4 4 3 4 3 3 3 3 4 4 4 3 4 4 5 5 5 4 5 5 5 5 5
2 3 3 6 6 6 9 11 12 13 13 15 16 16 11 7 5 5 5 4 4 5 4 4 3 3 3 3 3 3 4 3 3 4 4 4 4 4 4 4 4 4 5 5
3 4 4 6 4 4 9 9 11 8 9 9 13 11 6 6 6 6 5 4 5 5 4 4 4 4 4 3 3 3 3 3 3 3 3 3 4 4 4 4 4 5 5 5
5 4 3 3 2 8 4 1 4 7 8 9 8 7 6 6 6 5 4 4 5 5 4 4 3 3 3 3 3 3 2 2 3 3 3 4 4 4 4 4 5 5 5 6
4 5 3 3 5 8 4 2 3 5 7 5 7 8 6 4 4 4 3 3 5 5 4 3 3 3 3 3 2 2 2 2 3 3 4 4 4 4 4 5 5 5 6 6
1 2 4 4 5 6 2 1 0 2 5 2 4 6 4 2 3 3 3 4 4 3 2 2 2 2 2 3 2 2 2 3 3 4 4 4 4 5 5 6 6 6 6 6
3 3 6 7 7 7 2 0 2 4 3 2 3 3 3 4 4 3 3 4 3 3 3 2 2 2 3 2 2 2 3 4 4 4 4 4 4 5 5 6 5 6 6 6
6 5 5 5 6 6 2 3 4 3 3 2 3 3 4 4 4 3 3 4 4 4 3 2 2 3 3 2 2 3 4 4 4 4 4 5 5 5 5 5 6 6 5 6
5 5 4 6 5 1 3 3 2 2 3 3 4 4 4 4 4 4 4 4 4 3 4 3 3 3 3 3 2 4 4 4 4 4 5 5 5 5 5 5 6 5 5 5
4 2 4 5 6 4 4 4 3 4 4 4 3 3 3 3 4 4 4 4 4 3 3 3 3 3 4 3 3 4 5 4 4 5 5 5 5 5 5 4 5 5 5 5
3 3 3 6 5 5 4 5 5 4 4 4 3 3 3 3 3 4 4 4 4 4 3 3 3 4 5 4 4 4 4 3 4 5 5 5 5 5 5 5 5 6 6 7
3 4 4 5 3 4 4 3 3 3 4 4 3 3 3 3 4 4 4 4 4 4 4 4 4 5 5 5 5 5 4 3 4 4 5 4 4 4 4 5 6 8 9 11
Wind_Direction
111 184 208 213 219 249 222 222 239 244 230 228 237 251 258 242 232 235 229 222 228 284 352 14 50 105 143 150 168 173 170 159 143 147 148 142 157 109 64 52 49 51 49 44
163 221 237 208 188 194 211 230 247 242 184 230 256 265 261 240 225 225 214 204 206 247 360 20 56 96 122 135 144 165 185 173 166 171 171 221 172 176 50 47 44 36 40 44
206 152 178 178 180 204 231 236 242 244 230 214 265 266 236 214 201 204 209 210 212 221 258 357 11 76 105 124 155 163 165 181 184 168 127 107 101 97 62 9 354 338 344 9
219 254 188 195 221 230 250 239 229 227 234 245 233 272 241 215 214 214 210 207 214 224 233 265 301 256 226 209 180 175 161 159 169 166 167 168 188 203 247 267 287 313 309 286
211 184 213 226 253 231 234 89 201 220 231 256 229 247 255 200 231 229 215 210 213 222 227 241 254 238 227 210 181 162 148 142 149 165 189 203 220 244 267 262 258 281 298 298
239 84 296 258 15 160 137 118 114 180 215 246 232 228 256 221 224 209 200 206 212 221 235 250 253 226 210 181 167 158 157 146 150 174 194 221 234 245 243 249 250 257 269 282
240 210 143 128 135 138 181 198 234 228 225 242 191 232 253 242 222 214 208 214 222 225 237 252 254 234 226 215 215 217 203 205 205 204 214 234 244 242 236 243 247 257 260 269
233 240 188 197 216 204 202 220 235 253 257 259 215 240 252 294 264 233 215 221 231 235 244 251 251 248 245 240 242 242 235 236 232 229 233 238 244 242 249 251 256 253 253 261
221 227 94 112 339 208 191 215 256 253 281 273 252 262 270 237 234 226 220 225 232 240 248 254 252 251 250 247 247 244 243 245 242 241 245 244 245 249 253 258 261 259 264 269
220 237 211 146 172 14 278 178 176 208 243 256 260 256 251 221 220 220 225 234 246 254 265 268 264 260 253 249 246 240 244 252 254 250 248 251 254 255 256 254 255 259 264 266
218 221 223 194 213 213 177 189 211 216 246 251 265 256 246 230 221 223 231 239 250 254 256 268 270 257 253 249 246 246 247 255 258 256 256 255 256 255 254 251 254 257 260 261
208 221 244 235 348 321 239 223 202 217 230 234 264 269 50 234 227 226 239 247 254 253 261 271 265 257 252 250 252 254 256 256 258 259 254 251 253 250 251 254 258 259 257 258
162 184 236 242 212 203 231 225 221 224 231 232 246 260 70 322 295 274 261 264 264 264 275 273 258 256 253 252 252 256 258 259 262 257 253 252 251 250 251 255 257 258 257 259
166 209 233 251 277 196 226 222 208 205 230 246 247 262 274 283 287 289 279 275 274 271 277 265 260 258 260 260 258 261 264 261 258 252 251 252 252 251 253 256 257 256 255 255
197 235 246 266 279 267 253 241 219 222 237 251 264 267 275 275 280 284 277 274 271 275 276 261 258 261 263 265 265 264 264 259 249 243 247 251 255 254 253 255 256 257 256 256
219 236 249 267 264 260 265 254 240 242 248 253 265 272 282 288 296 290 269 267 268 276 275 272 269 271 270 268 264 263 262 256 243 239 247 253 252 250 252 254 256 257 258 259
196 198 228 260 279 279 264 245 228 235 237 236 249 265 290 291 286 285 279 267 269 279 273 271 271 270 272 269 266 259 259 252 240 241 246 247 246 249 252 254 254 256 258 259
194 199 226 262 260 246 265 80 219 232 248 238 254 276 286 284 298 294 279 273 283 292 279 278 277 281 285 282 277 274 260 249 247 248 248 248 248 251 255 255 256 260 260 258
216 198 209 223 251 268 268 200 193 226 263 244 254 272 297 323 311 283 275 283 288 297 289 282 284 289 294 290 286 272 260 253 252 254 255 256 255 257 260 260 262 264 262 261
143 214 217 217 240 252 281 71 303 205 258 249 260 271 288 304 278 299 342 321 314 320 312 297 300 302 295 296 287 260 263 262 264 269 270 268 262 259 260 262 265 264 262 263
176 198 218 229 242 263 319 40 162 211 283 329 272 267 246 238 272 317 326 327 330 328 320 304 296 293 290 294 281 266 271 271 277 281 279 274 268 265 264 266 264 265 265 265
200 197 207 212 230 253 114 141 201 271 339 313 284 268 256 269 291 303 312 321 328 326 321 312 300 297 299 290 274 274 278 286 289 284 281 279 276 274 269 267 267 265 263 263
218 221 219 212 231 334 165 211 265 331 301 293 284 278 265 271 282 295 307 314 318 315 311 313 302 299 302 294 272 269 282 292 289 283 280 281 282 276 272 268 267 265 260 260
233 244 235 250 256 259 247 252 288 301 296 298 290 277 255 263 281 293 301 309 313 309 306 307 305 304 306 302 278 270 281 288 285 280 281 280 278 275 271 266 262 260 260 260
246 196 237 255 275 298 259 257 276 286 294 299 298 283 265 260 274 283 293 299 302 305 305 299 290 292 299 307 302 292 285 281 279 281 281 281 277 278 280 274 267 264 259 258
211 204 223 253 262 255 278 298 287 278 281 282 284 290 284 269 270 283 289 293 298 301 301 295 291 290 296 303 302 300 293 278 275 282 283 282 281 280 278 281 283 275 270 275
Height
1506 1505 1502 1503 1505 1503 1503 1503 1504 1509 1517 1518 1514 1513 1515 1517 1517 1517 1517 1517 1517 1516 1516 1516 1516 1516 1517 1518 1519 1520 1521 1522 1523 1524 1525 1526 1526 1527 1528 1528 1529 1529 1529 1529
1505 1504 1506 1507 1508 1507 1505 1505 1504 1510 1517 1517 1513 1511 1511 1513 1513 1514 1514 1515 1515 1514 1514 1514 1514 1514 1514 1515 1516 1517 1518 1519 1520 1521 1522 1523 1524 1524 1525 1525 1525 1526 1526 1526
1499 1506 1509 1508 1507 1507 1505 1503 1503 1507 1514 1516 1515 1504 1505 1508 1511 1512 1512 1513 1513 1512 1512 1512 1512 1512 1512 1512 1513 1514 1515 1516 1517 1519 1519 1520 1521 1521 1521 1521 1522 1523 1523 1523
1505 1509 1509 1507 1506 1505 1502 1506 1508 1510 1508 1504 1510 1495 1495 1503 1507 1508 1509 1510 1510 1510 1510 1510 1510 1510 1510 1510 1511 1512 1512 1513 1514 1515 1516 1516 1517 1517 1517 1518 1519 1519 1519 1520
1505 1509 1508 1506 1507 1507 1506 1511 1511 1511 1509 1508 1508 1504 1489 1501 1501 1502 1505 1507 1507 1508 1508 1507 1507 1508 1508 1508 1509 1509 1510 1510 1511 1512 1512 1513 1514 1514 1515 1515 1515 1516 1516 1516
1508 1511 1510 1509 1511 1510 1512 1512 1512 1512 1508 1503 1501 1500 1484 1491 1494 1498 1502 1504 1505 1505 1505 1505 1505 1506 1506 1506 1506 1507 1507 1507 1508 1508 1509 1510 1510 1511 1511 1511 1511 1512 1512 1512
1505 1509 1511 1511 1510 1512 1511 1505 1500 1497 1496 1490 1507 1501 1487 1492 1497 1498 1500 1502 1502 1503 1503 1503 1502 1502 1503 1503 1503 1504 1504 1504 1504 1505 1505 1506 1507 1507 1507 1507 1507 1507 1507 1507
1498 1499 1508 1510 1507 1506 1508 1504 1495 1488 1481 1482 1506 1495 1487 1496 1498 1498 1499 1500 1500 1500 1500 1500 1499 1499 1499 1500 1500 1500 1500 1501 1501 1501 1502 1502 1503 1503 1503 1503 1503 1503 1503 1503
1495 1498 1511 1511 1511 1508 1506 1504 1505 1501 1505 1499 1485 1490 1492 1495 1496 1497 1498 1498 1498 1497 1497 1497 1496 1496 1496 1496 1496 1496 1497 1497 1497 1498 1498 1498 1498 1499 1499 1499 1499 1498 1499 1499
1500 1503 1508 1511 1511 1511 1509 1506 1506 1500 1494 1485 1480 1484 1479 1488 1491 1494 1495 1495 1495 1495 1494 1494 1493 1492 1492 1492 1492 1493 1493 1493 1493 1493 1494 1494 1494 1494 1494 1494 1494 1494 1494 1495
1504 1503 1507 1510 1508 1504 1509 1509 1504 1499 1497 1487 1479 1475 1481 1484 1487 1490 1491 1492 1492 1492 1492 1491 1490 1489 1488 1488 1488 1488 1489 1489 1489 1489 1489 1489 1489 1490 1490 1489 1489 1489 1489 1490
1505 1502 1501 1504 1509 1510 1507 1502 1501 1497 1498 1499 1487 1480 1485 1487 1487 1488 1489 1490 1489 1489 1488 1487 1486 1486 1485 1484 1484 1484 1484 1484 1484 1485 1485 1485 1485 1485 1485 1485 1485 1484 1484 1485
1506 1504 1499 1497 1507 1512 1509 1507 1506 1504 1500 1496 1489 1480 1487 1488 1487 1487 1487 1487 1486 1486 1485 1484 1483 1482 1481 1481 1480 1480 1480 1480 1480 1480 1480 1480 1480 1480 1480 1480 1480 1480 1480 1480
1505 1503 1497 1487 1485 1497 1503 1506 1507 1504 1496 1489 1485 1478 1483 1485 1485 1485 1485 1484 1483 1482 1481 1480 1480 1479 1478 1478 1477 1476 1476 1476 1476 1476 1476 1476 1476 1476 1476 1476 1475 1475 1475 1475
1504 1501 1502 1499 1499 1500 1499 1500 1503 1501 1492 1487 1480 1481 1479 1482 1484 1483 1482 1481 1481 1479 1478 1477 1477 1476 1475 1474 1473 1473 1472 1472 1471 1471 1471 1471 1472 1472 1471 1471 1471 1471 1471 1470
1504 1502 1503 1500 1499 1501 1499 1496 1497 1496 1493 1489 1485 1481 1480 1482 1482 1481 1479 1479 1478 1477 1476 1475 1474 1473 1472 1471 1470 1469 1468 1468 1467 1467 1467 1467 1467 1467 1467 1467 1466 1466 1466 1466
1502 1503 1499 1490 1499 1498 1488 1487 1490 1489 1487 1485 1481 1478 1479 1480 1479 1478 1477 1476 1475 1474 1472 1472 1471 1470 1469 1468 1467 1466 1465 1464 1464 1464 1464 1464 1463 1463 1463 1463 1462 1462 1462 1462
1501 1500 1498 1493 1496 1489 1477 1484 1484 1484 1483 1483 1481 1479 1479 1478 1477 1476 1475 1474 1472 1471 1470 1469 1468 1467 1466 1465 1464 1463 1462 1461 1461 1461 1460 1460 1460 1459 1459 1459 1459 1458 1458 1457
1498 1498 1496 1493 1486 1476 1478 1483 1484 1484 1480 1480 1479 1478 1478 1477 1474 1472 1471 1471 1470 1469 1468 1467 1465 1464 1463 1462 1461 1460 1459 1458 1458 1458 1457 1457 1456 1456 1455 1455 1455 1454 1454 1453
1499 1498 1495 1493 1485 1476 1473 1482 1482 1483 1477 1476 1476 1476 1476 1476 1472 1470 1470 1469 1468 1466 1465 1464 1463 1462 1460 1459 1458 1457 1456 1456 1455 1455 1454 1454 1453 1452 1452 1451 1451 1450 1449 1448
1497 1497 1494 1490 1483 1474 1479 1482 1482 1479 1472 1475 1474 1474 1474 1474 1472 1471 1468 1467 1466 1464 1462 1461 1460 1459 1458 1457 1456 1454 1454 1453 1452 1452 1451 1450 1450 1449 1448 1447 1447 1446 1445 1444
1489 1488 1490 1487 1483 1476 1480 1481 1480 1475 1474 1473 1472 1472 1472 1471 1469 1468 1466 1465 1463 1462 1460 1459 1457 1456 1455 1454 1453 1452 1451 1450 1450 1449 1448 1447 1446 1445 1444 1443 1442 1441 1441 1439
1488 1485 1482 1481 1477 1477 1477 1476 1476 1475 1474 1472 1471 1470 1469 1468 1467 1465 1464 1462 1461 1459 1458 1456 1455 1453 1453 1451 1450 1449 1448 1447 1446 1445 1444 1443 1442 1441 1440 1439 1438 1437 1436 1435
1485 1486 1484 1481 1475 1475 1475 1474 1473 1473 1472 1470 1469 1468 1466 1465 1464 1463 1461 1460 1459 1457 1456 1454 1452 1451 1450 1449 1447 1446 1445 1444 1443 1441 1440 1439 1438 1437 1436 1435 1434 1433 1431 1430
1482 1484 1482 1478 1475 1474 1471 1471 1470 1469 1469 1467 1466 1465 1464 1463 1461 1460 1459 1458 1456 1455 1453 1452 1450 1448 1447 1446 1444 1443 1442 1441 1439 1438 1436 1435 1434 1432 1431 1430 1429 1428 1427 1426
1480 1481 1479 1473 1472 1472 1470 1468 1468 1467 1466 1465 1463 1462 1461 1460 1459 1458 1456 1455 1454 1452 1451 1449 1448 1446 1445 1443 1441 1440 1439 1437 1435 1434 1433 1431 1430 1428 1427 1426 1424 1423 1423 1421